| time (UTC) | temp F | wind direction | speed MPH | gust MPH | rain 1hr in | rain 24hr in | rain mn in | humidity % | barometer mb |
| 20260504160418 | 66 | 196 | 3.0 | 6.0 | 0.00 | 0.00 | 0.00 | 69 | 1010.3 |
| 20260504150919 | 67 | 253 | 2.0 | 4.0 | 0.00 | 0.01 | 0.00 | 69 | 1010.3 |
| 20260504150626 | 67 | 253 | 2.0 | 4.0 | 0.00 | 0.00 | 0.00 | 68 | 1010.3 |
| 20260504150419 | 67 | 253 | 3.0 | 5.0 | 0.00 | 0.01 | 0.00 | 68 | 1010.3 |
| 20260504140919 | 67 | 285 | 2.0 | 6.0 | 0.00 | 0.05 | 0.00 | 68 | 1010.5 |
| 20260504140626 | 67 | 286 | 2.0 | 6.0 | 0.00 | 0.01 | 0.00 | 68 | 1010.5 |
| 20260504140419 | 67 | 288 | 2.0 | 6.0 | 0.00 | 0.06 | 0.00 | 68 | 1010.5 |
| 20260504130626 | 67 | 246 | 5.0 | 12.0 | 0.00 | 0.09 | 0.00 | 71 | 1011.0 |
| 20260504130419 | 67 | 248 | 4.0 | 12.0 | 0.00 | 0.15 | 0.00 | 71 | 1011.1 |
| 20260504110626 | 66 | 182 | 2.0 | 5.0 | 0.00 | 0.16 | 0.00 | 72 | 1011.2 |
| 20260504110419 | 66 | 182 | 2.0 | 6.0 | 0.00 | 0.16 | 0.00 | 72 | 1011.2 |
| 20260504100419 | 65 | 226 | 3.0 | 8.0 | 0.00 | 0.16 | 0.00 | 71 | 1011.5 |
| 20260504081919 | 63 | 207 | 2.0 | 5.0 | 0.00 | 0.16 | 0.00 | 77 | 1011.2 |
| 20260504081626 | 63 | 207 | 2.0 | 4.0 | 0.00 | 0.16 | 0.00 | 77 | 1011.1 |
| 20260504081419 | 63 | 207 | 2.0 | 5.0 | 0.00 | 0.16 | 0.00 | 77 | 1011.1 |
| 20260504080919 | 64 | 203 | 2.0 | 6.0 | 0.00 | 0.16 | 0.00 | 77 | 1011.1 |
| 20260504080626 | 64 | 206 | 2.0 | 6.0 | 0.00 | 0.16 | 0.00 | 77 | 1011.1 |
| 20260504080419 | 64 | 185 | 3.0 | 6.0 | 0.00 | 0.16 | 0.00 | 77 | 1011.2 |
| 20260504050627 | 51 | 203 | 0.0 | 0.0 | 0.00 | 0.16 | 0.00 | 92 | 1010.3 |
| 20260504050420 | 51 | 0 | 0.0 | 0.0 | 0.00 | 0.16 | 0.00 | 92 | 1010.3 |
| 20260504045920 | 51 | 0 | 0.0 | 0.0 | 0.00 | 0.16 | 0.00 | 92 | 1010.2 |
| 20260504045419 | 50 | 0 | 0.0 | 0.0 | 0.00 | 0.16 | 0.00 | 92 | 1010.1 |
| 20260504044919 | 50 | 0 | 0.0 | 0.0 | 0.00 | 0.16 | 0.00 | 92 | 1010.1 |
| 20260504044419 | 50 | 0 | 0.0 | 0.0 | 0.00 | 0.16 | 0.00 | 92 | 1010.2 |
| 20260504043919 | 50 | 0 | 0.0 | 0.0 | 0.00 | 0.16 | 0.00 | 91 | 1010.2 |
| 20260504043419 | 50 | 0 | 0.0 | 0.0 | 0.00 | 0.16 | 0.00 | 91 | 1010.1 |
| 20260504042919 | 50 | 0 | 0.0 | 0.0 | 0.00 | 0.16 | 0.00 | 91 | 1010.0 |
| 20260504042627 | 50 | 203 | 0.0 | 0.0 | 0.00 | 0.16 | 0.00 | 91 | 1010.1 |
| 20260504041919 | 50 | 0 | 0.0 | 0.0 | 0.00 | 0.16 | 0.00 | 91 | 1010.0 |
| 20260504041626 | 50 | 203 | 0.0 | 0.0 | 0.00 | 0.16 | 0.00 | 91 | 1010.0 |
| 20260504041419 | 50 | 0 | 0.0 | 0.0 | 0.00 | 0.16 | 0.00 | 91 | 1010.0 |
| 20260504040420 | 50 | 0 | 0.0 | 0.0 | 0.00 | 0.16 | 0.00 | 90 | 1010.1 |
| 20260504035919 | 50 | 0 | 0.0 | 0.0 | 0.00 | 0.16 | 0.00 | 90 | 1010.1 |
| 20260504035626 | 50 | 203 | 0.0 | 0.0 | 0.00 | 0.16 | 0.00 | 90 | 1010.0 |
| 20260504034419 | 50 | 0 | 0.0 | 0.0 | 0.00 | 0.16 | 0.00 | 90 | 1009.9 |
| 20260504033919 | 50 | 0 | 0.0 | 0.0 | 0.00 | 0.16 | 0.00 | 90 | 1010.0 |
| 20260504033420 | 50 | 0 | 0.0 | 0.0 | 0.00 | 0.16 | 0.00 | 90 | 1010.1 |
| 20260504032920 | 51 | 0 | 0.0 | 0.0 | 0.00 | 0.16 | 0.00 | 90 | 1010.0 |
| 20260504032627 | 51 | 203 | 0.0 | 0.0 | 0.00 | 0.16 | 0.00 | 91 | 1010.2 |
| 20260504032420 | 51 | 0 | 0.0 | 0.0 | 0.00 | 0.16 | 0.00 | 91 | 1010.2 |
| 20260504031919 | 51 | 0 | 0.0 | 0.0 | 0.00 | 0.16 | 0.00 | 90 | 1010.1 |
| 20260504031626 | 51 | 203 | 0.0 | 0.0 | 0.00 | 0.16 | 0.00 | 90 | 1010.1 |
| 20260504031419 | 51 | 0 | 0.0 | 0.0 | 0.00 | 0.16 | 0.00 | 90 | 1010.1 |
| 20260504030626 | 51 | 203 | 0.0 | 0.0 | 0.00 | 0.16 | 0.00 | 91 | 1010.2 |
| 20260504030419 | 51 | 0 | 0.0 | 0.0 | 0.00 | 0.16 | 0.00 | 91 | 1010.2 |
| 20260504025919 | 51 | 0 | 0.0 | 0.0 | 0.00 | 0.16 | 0.00 | 91 | 1010.2 |
| 20260504025627 | 51 | 203 | 0.0 | 0.0 | 0.00 | 0.16 | 0.00 | 91 | 1010.2 |
| 20260504025421 | 51 | 0 | 0.0 | 0.0 | 0.00 | 0.16 | 0.00 | 91 | 1010.2 |
| 20260504023626 | 51 | 203 | 0.0 | 0.0 | 0.00 | 0.16 | 0.00 | 91 | 1010.1 |
| 20260504023419 | 51 | 0 | 0.0 | 0.0 | 0.00 | 0.16 | 0.00 | 91 | 1010.1 |
| 20260504022919 | 51 | 0 | 0.0 | 0.0 | 0.00 | 0.16 | 0.00 | 90 | 1010.1 |
| 20260504022627 | 51 | 203 | 0.0 | 0.0 | 0.00 | 0.16 | 0.00 | 90 | 1010.1 |
| 20260504021920 | 51 | 0 | 0.0 | 0.0 | 0.00 | 0.16 | 0.00 | 90 | 1010.1 |
| 20260504021628 | 51 | 203 | 0.0 | 0.0 | 0.00 | 0.16 | 0.00 | 90 | 1010.2 |
| 20260504020920 | 51 | 0 | 0.0 | 0.0 | 0.00 | 0.16 | 0.00 | 90 | 1010.2 |
| 20260504020627 | 51 | 203 | 0.0 | 0.0 | 0.00 | 0.16 | 0.00 | 90 | 1010.1 |
| 20260504020420 | 51 | 0 | 0.0 | 0.0 | 0.00 | 0.16 | 0.00 | 90 | 1010.1 |
| 20260504015626 | 51 | 203 | 0.0 | 0.0 | 0.00 | 0.16 | 0.00 | 90 | 1010.1 |
| 20260504015420 | 51 | 0 | 0.0 | 0.0 | 0.00 | 0.16 | 0.00 | 90 | 1010.1 |
| 20260504014919 | 51 | 0 | 0.0 | 0.0 | 0.00 | 0.16 | 0.00 | 90 | 1010.1 |
| 20260504014626 | 51 | 203 | 0.0 | 0.0 | 0.00 | 0.16 | 0.00 | 90 | 1010.1 |
| 20260504014420 | 51 | 0 | 0.0 | 0.0 | 0.00 | 0.16 | 0.00 | 90 | 1010.1 |
| 20260504013919 | 51 | 0 | 0.0 | 0.0 | 0.00 | 0.16 | 0.00 | 90 | 1010.1 |
| 20260504012919 | 51 | 0 | 0.0 | 0.0 | 0.00 | 0.16 | 0.00 | 89 | 1010.1 |
| 20260504012627 | 52 | 203 | 0.0 | 0.0 | 0.00 | 0.16 | 0.00 | 89 | 1010.0 |
| 20260504012421 | 52 | 0 | 0.0 | 0.0 | 0.00 | 0.16 | 0.00 | 89 | 1010.0 |
| 20260504011919 | 52 | 0 | 0.0 | 0.0 | 0.00 | 0.16 | 0.00 | 89 | 1010.0 |
| 20260504011627 | 52 | 203 | 0.0 | 0.0 | 0.00 | 0.16 | 0.00 | 89 | 1010.1 |
| 20260504011419 | 52 | 0 | 0.0 | 0.0 | 0.00 | 0.16 | 0.00 | 89 | 1010.1 |
| 20260504010627 | 52 | 203 | 0.0 | 0.0 | 0.00 | 0.16 | 0.00 | 90 | 1010.1 |
| 20260504010420 | 52 | 0 | 0.0 | 0.0 | 0.00 | 0.16 | 0.00 | 90 | 1010.1 |
| 20260504005920 | 52 | 0 | 0.0 | 0.0 | 0.00 | 0.16 | 0.00 | 89 | 1009.9 |
| 20260504005627 | 53 | 203 | 0.0 | 0.0 | 0.00 | 0.16 | 0.00 | 90 | 1009.9 |
| 20260504005419 | 53 | 0 | 0.0 | 0.0 | 0.00 | 0.16 | 0.00 | 90 | 1009.9 |
| 20260504004627 | 53 | 203 | 0.0 | 0.0 | 0.00 | 0.16 | 0.00 | 89 | 1010.0 |
| 20260504003919 | 53 | 0 | 0.0 | 0.0 | 0.00 | 0.16 | 0.00 | 89 | 1010.0 |
| 20260504003627 | 53 | 203 | 0.0 | 0.0 | 0.00 | 0.16 | 0.00 | 89 | 1010.0 |
| 20260504003420 | 53 | 0 | 0.0 | 0.0 | 0.00 | 0.16 | 0.00 | 89 | 1010.0 |
| 20260504002919 | 53 | 0 | 0.0 | 0.0 | 0.00 | 0.16 | 0.00 | 89 | 1009.9 |
| 20260504002627 | 53 | 203 | 0.0 | 0.0 | 0.00 | 0.16 | 0.00 | 89 | 1009.9 |
| 20260504002420 | 53 | 0 | 0.0 | 0.0 | 0.00 | 0.16 | 0.00 | 89 | 1009.9 |
| 20260504001919 | 53 | 0 | 0.0 | 0.0 | 0.00 | 0.16 | 0.00 | 89 | 1009.9 |
| 20260504001420 | 53 | 0 | 0.0 | 0.0 | 0.00 | 0.16 | 0.00 | 89 | 1009.9 |
| 20260504000920 | 54 | 0 | 0.0 | 0.0 | 0.00 | 0.16 | 0.00 | 89 | 1009.8 |
| 20260504000626 | 54 | 203 | 0.0 | 0.0 | 0.00 | 0.16 | 0.00 | 89 | 1009.9 |
| 20260503235919 | 54 | 0 | 0.0 | 0.0 | 0.00 | 0.16 | 0.00 | 88 | 1010.0 |
| 20260503235420 | 54 | 0 | 0.0 | 0.0 | 0.00 | 0.16 | 0.00 | 88 | 1009.9 |
| 20260503234920 | 54 | 0 | 0.0 | 0.0 | 0.00 | 0.16 | 0.00 | 88 | 1010.0 |
| 20260503234627 | 54 | 203 | 0.0 | 0.0 | 0.00 | 0.16 | 0.00 | 88 | 1009.9 |
| 20260503234419 | 54 | 0 | 0.0 | 0.0 | 0.00 | 0.16 | 0.00 | 88 | 1009.9 |
| 20260503233920 | 54 | 0 | 0.0 | 0.0 | 0.00 | 0.16 | 0.00 | 88 | 1009.9 |
| 20260503233420 | 55 | 0 | 0.0 | 0.0 | 0.00 | 0.16 | 0.00 | 88 | 1010.0 |
| 20260503232920 | 55 | 0 | 0.0 | 0.0 | 0.00 | 0.16 | 0.00 | 88 | 1009.9 |
| 20260503232627 | 55 | 203 | 0.0 | 0.0 | 0.00 | 0.16 | 0.00 | 88 | 1010.0 |
| 20260503232419 | 55 | 0 | 0.0 | 0.0 | 0.00 | 0.16 | 0.00 | 88 | 1010.0 |
| 20260503231920 | 55 | 0 | 0.0 | 0.0 | 0.00 | 0.16 | 0.00 | 88 | 1009.9 |
| 20260503231627 | 56 | 203 | 0.0 | 0.0 | 0.00 | 0.16 | 0.00 | 88 | 1010.1 |
| 20260503231420 | 56 | 0 | 0.0 | 1.0 | 0.00 | 0.16 | 0.00 | 88 | 1010.1 |
| 20260503230627 | 56 | 203 | 0.0 | 0.0 | 0.00 | 0.16 | 0.00 | 88 | 1010.0 |
| 20260503225920 | 56 | 0 | 0.0 | 0.0 | 0.00 | 0.16 | 0.00 | 88 | 1010.0 |
| 20260503225627 | 56 | 203 | 0.0 | 0.0 | 0.00 | 0.16 | 0.00 | 88 | 1010.0 |
| 20260503225420 | 56 | 0 | 0.0 | 0.0 | 0.00 | 0.16 | 0.00 | 88 | 1010.0 |
| 20260503224627 | 57 | 203 | 0.0 | 0.0 | 0.00 | 0.16 | 0.00 | 89 | 1009.9 |
| 20260503224420 | 57 | 0 | 0.0 | 0.0 | 0.00 | 0.16 | 0.00 | 89 | 1009.9 |
| 20260503223920 | 57 | 0 | 0.0 | 0.0 | 0.00 | 0.16 | 0.00 | 89 | 1009.9 |
| 20260503223627 | 57 | 203 | 0.0 | 0.0 | 0.00 | 0.16 | 0.00 | 89 | 1009.9 |
| 20260503223420 | 57 | 0 | 0.0 | 2.0 | 0.00 | 0.16 | 0.00 | 89 | 1009.9 |
| 20260503222920 | 57 | 0 | 0.0 | 2.0 | 0.00 | 0.16 | 0.00 | 89 | 1010.0 |
| 20260503222627 | 57 | 203 | 1.0 | 1.0 | 0.00 | 0.16 | 0.00 | 89 | 1010.0 |
| 20260503222419 | 57 | 0 | 0.0 | 2.0 | 0.00 | 0.16 | 0.00 | 89 | 1010.0 |
| 20260503221921 | 57 | 204 | 1.0 | 3.0 | 0.00 | 0.16 | 0.00 | 89 | 1010.1 |
| 20260503221419 | 57 | 204 | 1.0 | 3.0 | 0.00 | 0.16 | 0.00 | 89 | 1010.1 |
| 20260503220627 | 57 | 203 | 0.0 | 2.0 | 0.00 | 0.16 | 0.00 | 89 | 1010.1 |
| 20260503220421 | 57 | 203 | 1.0 | 2.0 | 0.00 | 0.16 | 0.00 | 89 | 1010.2 |
| 20260503215924 | 57 | 0 | 0.0 | 2.0 | 0.00 | 0.16 | 0.00 | 88 | 1010.0 |
| 20260503215627 | 57 | 203 | 0.0 | 0.0 | 0.00 | 0.16 | 0.16 | 88 | 1010.0 |
| 20260503215420 | 57 | 0 | 0.0 | 1.0 | 0.00 | 0.16 | 0.16 | 88 | 1010.0 |
| 20260503214920 | 57 | 0 | 0.0 | 2.0 | 0.00 | 0.16 | 0.16 | 87 | 1009.9 |
| 20260503214420 | 57 | 203 | 1.0 | 2.0 | 0.00 | 0.16 | 0.16 | 87 | 1009.9 |
| 20260503213920 | 57 | 0 | 0.0 | 2.0 | 0.00 | 0.16 | 0.16 | 87 | 1009.9 |
| 20260503213627 | 58 | 203 | 1.0 | 3.0 | 0.00 | 0.16 | 0.16 | 87 | 1009.9 |
| 20260503212920 | 58 | 204 | 1.0 | 3.0 | 0.00 | 0.16 | 0.16 | 87 | 1009.9 |
| 20260503212627 | 58 | 203 | 1.0 | 3.0 | 0.00 | 0.16 | 0.16 | 87 | 1009.9 |
| 20260503212420 | 58 | 204 | 1.0 | 3.0 | 0.00 | 0.16 | 0.16 | 87 | 1009.9 |
| 20260503211920 | 58 | 204 | 2.0 | 4.0 | 0.00 | 0.16 | 0.16 | 87 | 1009.9 |
| 20260503211420 | 58 | 205 | 2.0 | 4.0 | 0.00 | 0.16 | 0.16 | 87 | 1010.0 |
| 20260503210919 | 58 | 206 | 2.0 | 8.0 | 0.00 | 0.16 | 0.16 | 87 | 1010.0 |
| 20260503210627 | 58 | 205 | 2.0 | 8.0 | 0.00 | 0.16 | 0.16 | 86 | 1010.0 |
| 20260503210420 | 58 | 209 | 3.0 | 8.0 | 0.00 | 0.16 | 0.16 | 86 | 1010.0 |
| 20260503205920 | 59 | 222 | 3.0 | 8.0 | 0.00 | 0.16 | 0.16 | 86 | 1010.0 |
| 20260503205627 | 59 | 207 | 3.0 | 8.0 | 0.00 | 0.16 | 0.16 | 85 | 1010.0 |
| 20260503205420 | 59 | 234 | 4.0 | 8.0 | 0.00 | 0.16 | 0.16 | 85 | 1010.0 |
| 20260503204921 | 59 | 233 | 4.0 | 8.0 | 0.00 | 0.16 | 0.16 | 85 | 1010.1 |
| 20260503204627 | 59 | 261 | 3.0 | 7.0 | 0.00 | 0.16 | 0.16 | 85 | 1010.1 |
| 20260503204420 | 59 | 229 | 3.0 | 8.0 | 0.00 | 0.16 | 0.16 | 85 | 1010.1 |
| 20260503203627 | 59 | 253 | 3.0 | 7.0 | 0.00 | 0.16 | 0.16 | 84 | 1010.1 |
| 20260503203419 | 59 | 231 | 3.0 | 7.0 | 0.00 | 0.16 | 0.16 | 84 | 1010.1 |
| 20260503202920 | 59 | 241 | 2.0 | 6.0 | 0.00 | 0.16 | 0.16 | 84 | 1010.1 |
| 20260503202627 | 60 | 251 | 2.0 | 6.0 | 0.00 | 0.16 | 0.16 | 83 | 1010.1 |
| 20260503202420 | 60 | 241 | 2.0 | 7.0 | 0.00 | 0.17 | 0.16 | 83 | 1010.1 |
| 20260503201627 | 60 | 232 | 2.0 | 7.0 | 0.00 | 0.16 | 0.16 | 83 | 1010.1 |
| 20260503201419 | 60 | 241 | 3.0 | 8.0 | 0.00 | 0.17 | 0.16 | 83 | 1010.1 |
| 20260503200920 | 60 | 235 | 2.0 | 7.0 | 0.00 | 0.17 | 0.16 | 83 | 1010.1 |
| 20260503200627 | 60 | 232 | 2.0 | 5.0 | 0.00 | 0.16 | 0.16 | 82 | 1010.1 |
| 20260503200420 | 60 | 231 | 2.0 | 5.0 | 0.00 | 0.17 | 0.16 | 82 | 1010.1 |
| 20260503195919 | 60 | 246 | 2.0 | 5.0 | 0.00 | 0.17 | 0.16 | 82 | 1010.1 |
| 20260503195420 | 60 | 245 | 3.0 | 7.0 | 0.00 | 0.17 | 0.16 | 82 | 1010.0 |
| 20260503194921 | 60 | 242 | 3.0 | 7.0 | 0.00 | 0.18 | 0.16 | 82 | 1010.0 |
| 20260503194627 | 60 | 242 | 3.0 | 5.0 | 0.00 | 0.17 | 0.16 | 82 | 1010.0 |
| 20260503194420 | 60 | 239 | 3.0 | 5.0 | 0.00 | 0.18 | 0.16 | 82 | 1010.0 |
| 20260503193919 | 60 | 240 | 3.0 | 5.0 | 0.00 | 0.18 | 0.16 | 82 | 1009.8 |
| 20260503193627 | 60 | 240 | 3.0 | 5.0 | 0.00 | 0.17 | 0.16 | 81 | 1009.8 |
| 20260503193420 | 60 | 239 | 3.0 | 6.0 | 0.00 | 0.18 | 0.16 | 81 | 1009.8 |
| 20260503191919 | 60 | 232 | 2.0 | 5.0 | 0.00 | 0.19 | 0.16 | 81 | 1009.7 |
| 20260503191627 | 60 | 229 | 2.0 | 5.0 | 0.00 | 0.17 | 0.16 | 81 | 1009.7 |
| 20260503191420 | 60 | 232 | 3.0 | 6.0 | 0.00 | 0.19 | 0.16 | 81 | 1009.7 |
| 20260503190919 | 60 | 238 | 3.0 | 6.0 | 0.00 | 0.19 | 0.16 | 80 | 1009.6 |
| 20260503190420 | 60 | 246 | 3.0 | 8.0 | 0.00 | 0.19 | 0.16 | 80 | 1009.6 |
| 20260503185919 | 60 | 248 | 3.0 | 8.0 | 0.00 | 0.19 | 0.16 | 80 | 1009.6 |
| 20260503185420 | 61 | 243 | 3.0 | 7.0 | 0.00 | 0.19 | 0.16 | 80 | 1009.6 |
| 20260503184920 | 61 | 234 | 3.0 | 8.0 | 0.00 | 0.19 | 0.16 | 80 | 1009.5 |
| 20260503184627 | 61 | 220 | 3.0 | 7.0 | 0.00 | 0.19 | 0.16 | 80 | 1009.4 |
| 20260503183920 | 61 | 247 | 4.0 | 9.0 | 0.00 | 0.19 | 0.16 | 80 | 1009.3 |
| 20260503183627 | 61 | 245 | 3.0 | 9.0 | 0.00 | 0.19 | 0.16 | 80 | 1009.3 |
| 20260503183419 | 61 | 246 | 4.0 | 11.0 | 0.00 | 0.19 | 0.16 | 80 | 1009.3 |
| 20260503182920 | 61 | 235 | 4.0 | 11.0 | 0.00 | 0.23 | 0.16 | 80 | 1009.4 |
| 20260503181920 | 61 | 224 | 3.0 | 7.0 | 0.00 | 0.33 | 0.16 | 81 | 1009.3 |
| 20260503181627 | 61 | 240 | 1.0 | 5.0 | 0.00 | 0.19 | 0.16 | 82 | 1009.2 |
| 20260503181420 | 61 | 237 | 2.0 | 7.0 | 0.00 | 0.33 | 0.16 | 81 | 1009.2 |
| 20260503180920 | 61 | 220 | 2.0 | 5.0 | 0.00 | 0.33 | 0.16 | 82 | 1009.2 |
| 20260503180627 | 61 | 206 | 2.0 | 5.0 | 0.00 | 0.19 | 0.16 | 82 | 1009.2 |
| 20260503180420 | 61 | 205 | 2.0 | 5.0 | 0.00 | 0.33 | 0.16 | 82 | 1009.2 |
| 20260503175919 | 61 | 207 | 2.0 | 8.0 | 0.00 | 0.33 | 0.16 | 82 | 1009.2 |
| 20260503175627 | 61 | 199 | 3.0 | 8.0 | 0.00 | 0.33 | 0.16 | 81 | 1009.3 |
| 20260503175420 | 61 | 219 | 3.0 | 8.0 | 0.00 | 0.33 | 0.16 | 81 | 1009.3 |
| 20260503174920 | 61 | 220 | 3.0 | 8.0 | 0.00 | 0.34 | 0.16 | 81 | 1009.2 |
| 20260503174627 | 61 | 217 | 3.0 | 8.0 | 0.00 | 0.33 | 0.16 | 82 | 1009.1 |
| 20260503174420 | 61 | 221 | 3.0 | 8.0 | 0.00 | 0.35 | 0.16 | 82 | 1009.1 |
| 20260503173920 | 61 | 232 | 2.0 | 7.0 | 0.00 | 0.39 | 0.16 | 82 | 1009.0 |
| 20260503173627 | 61 | 237 | 2.0 | 7.0 | 0.00 | 0.33 | 0.16 | 82 | 1009.2 |
| 20260503173420 | 61 | 232 | 3.0 | 7.0 | 0.00 | 0.41 | 0.16 | 82 | 1009.2 |
| 20260503172920 | 61 | 223 | 2.0 | 6.0 | 0.00 | 0.45 | 0.16 | 81 | 1009.0 |
| 20260503172419 | 61 | 219 | 3.0 | 6.0 | 0.00 | 0.50 | 0.16 | 82 | 1009.0 |
| 20260503171920 | 61 | 226 | 3.0 | 9.0 | 0.00 | 0.54 | 0.16 | 82 | 1009.0 |
| 20260503171627 | 61 | 237 | 3.0 | 9.0 | 0.00 | 0.33 | 0.16 | 81 | 1008.9 |
| 20260503171421 | 61 | 222 | 4.0 | 13.0 | 0.00 | 0.54 | 0.16 | 81 | 1009.0 |
| 20260503170919 | 61 | 213 | 4.0 | 13.0 | 0.00 | 0.54 | 0.16 | 81 | 1009.0 |
| 20260503170627 | 61 | 232 | 4.0 | 9.0 | 0.00 | 0.33 | 0.16 | 82 | 1009.1 |
| 20260503170420 | 61 | 215 | 4.0 | 9.0 | 0.00 | 0.54 | 0.16 | 82 | 1009.1 |